When you browse on this site, cookies collect data to enhance your experience and personalize the content and advertising you see.
Visit our Privacy Policy to learn more. By continuing to use the site, you agree to this use of cookies and data.
  • In Hungary
  • List of Countries
  • For 7 days
  • Water Temperature
  • Satellite Maps
  • Weather Map
  • News
  • Weather Widgets
  • user-avatar
    Login

    Hourly Weather Haarlem

    Today, 17 November, Saturday

    Time Temperature Precipitation Wind Pressure Humidity
    00:00 +2°C° 0 mm 5 mps 771 mmHg 81%
    01:00 +2°C° 0 mm 5 mps 771 mmHg 81%
    02:00 +2°C° 0 mm 5 mps 772 mmHg 81%
    03:00 +1°C° 0 mm 5 mps 772 mmHg 81%
    04:00 +1°C° 0 mm 5 mps 772 mmHg 81%
    05:00 +1°C° 0 mm 5 mps 772 mmHg 82%
    06:00 +1°C° 0 mm 6 mps 772 mmHg 82%
    07:00 +1°C° 0 mm 6 mps 772 mmHg 79%
    08:00 +2°C° 0 mm 6 mps 772 mmHg 75%
    09:00 +3°C° 0 mm 7 mps 773 mmHg 72%
    10:00 +4°C° 0 mm 7 mps 773 mmHg 67%
    11:00 +5°C° 0 mm 7 mps 773 mmHg 62%
    12:00 +6°C° 0 mm 7 mps 773 mmHg 57%
    13:00 +6°C° 0 mm 7 mps 773 mmHg 58%
    14:00 +6°C° 0 mm 7 mps 772 mmHg 59%
    15:00 +6°C° 0 mm 7 mps 772 mmHg 60%
    16:00 +5°C° 0 mm 7 mps 772 mmHg 61%
    17:00 +4°C° 0 mm 7 mps 773 mmHg 63%
    18:00 +4°C° 0 mm 8 mps 773 mmHg 65%
    19:00 +2°C° 0 mm 8 mps 773 mmHg 65%
    20:00 +2°C° 0 mm 8 mps 773 mmHg 65%
    21:00 +1°C° 0 mm 8 mps 773 mmHg 66%
    22:00 +1°C° 0 mm 8 mps 773 mmHg 64%
    23:00 0°C° 0 mm 7 mps 773 mmHg 63%

    Tomorrow, 18 November, Sunday

    Time Temperature Precipitation Wind Pressure Humidity
    00:00 0°C° 0 mm 7 mps 773 mmHg 62%
    01:00 0°C° 0 mm 7 mps 773 mmHg 61%
    02:00 -1°C° 0 mm 7 mps 773 mmHg 61%
    03:00 -1°C° 0 mm 7 mps 773 mmHg 60%
    04:00 -1°C° 0 mm 7 mps 773 mmHg 58%
    05:00 -1°C° 0 mm 7 mps 773 mmHg 57%
    06:00 -2°C° 0 mm 7 mps 773 mmHg 56%
    07:00 -1°C° 0 mm 8 mps 773 mmHg 54%
    08:00 -1°C° 0 mm 8 mps 773 mmHg 52%
    09:00 0°C° 0 mm 8 mps 773 mmHg 51%
    10:00 +1°C° 0 mm 8 mps 773 mmHg 48%
    11:00 +2°C° 0 mm 8 mps 773 mmHg 45%
    12:00 +5°C° 0 mm 8 mps 773 mmHg 43%
    13:00 +4°C° 0 mm 8 mps 772 mmHg 42%
    14:00 +4°C° 0 mm 8 mps 772 mmHg 41%
    15:00 +4°C° 0 mm 8 mps 772 mmHg 40%
    16:00 +2°C° 0 mm 8 mps 772 mmHg 42%
    17:00 +2°C° 0 mm 8 mps 772 mmHg 43%
    18:00 +1°C° 0 mm 8 mps 771 mmHg 45%
    19:00 +1°C° 0 mm 8 mps 772 mmHg 51%
    20:00 0°C° 0 mm 8 mps 772 mmHg 58%
    21:00 0°C° 0 mm 8 mps 772 mmHg 64%
    22:00 0°C° 0 mm 8 mps 771 mmHg 72%
    23:00 0°C° 0 mm 8 mps 771 mmHg 79%

    Day after tomorrow, 19 November, Monday

    Time Temperature Precipitation Wind Pressure Humidity
    00:00 0°C° 0 mm 8 mps 771 mmHg 87%
    01:00 0°C° 0 mm 8 mps 771 mmHg 87%
    02:00 0°C° 0 mm 8 mps 771 mmHg 87%
    03:00 0°C° 0 mm 8 mps 770 mmHg 87%
    04:00 0°C° 0 mm 8 mps 770 mmHg 87%
    05:00 0°C° 0 mm 8 mps 770 mmHg 87%
    06:00 +1°C° 0 mm 8 mps 770 mmHg 87%
    07:00 +1°C° 0 mm 8 mps 770 mmHg 83%
    08:00 +2°C° 0 mm 8 mps 769 mmHg 80%
    09:00 +4°C° 0 mm 8 mps 769 mmHg 77%
    10:00 +4°C° 0 mm 8 mps 769 mmHg 71%
    11:00 +5°C° 0 mm 8 mps 769 mmHg 66%
    12:00 +6°C° 0 mm 8 mps 768 mmHg 60%
    13:00 +6°C° 0 mm 8 mps 768 mmHg 61%
    14:00 +5°C° 0 mm 8 mps 767 mmHg 61%
    15:00 +5°C° 0 mm 8 mps 767 mmHg 62%
    16:00 +4°C° 0 mm 8 mps 766 mmHg 65%
    17:00 +2°C° 0 mm 9 mps 766 mmHg 68%
    18:00 +1°C° 0 mm 9 mps 766 mmHg 70%
    19:00 +1°C° 0 mm 9 mps 766 mmHg 71%
    20:00 +1°C° 0 mm 9 mps 766 mmHg 71%
    21:00 +1°C° 0 mm 9 mps 766 mmHg 71%
    22:00 +1°C° 0 mm 9 mps 766 mmHg 71%
    23:00 0°C° 0 mm 9 mps 765 mmHg 71%

    20 November, Tuesday

    Time Temperature Precipitation Wind Pressure Humidity
    00:00 0°C° 0 mm 9 mps 765 mmHg 71%
    01:00 0°C° 0 mm 9 mps 765 mmHg 72%
    02:00 -1°C° 0 mm 9 mps 765 mmHg 74%
    03:00 -1°C° 0 mm 9 mps 765 mmHg 75%
    04:00 -1°C° 0 mm 9 mps 764 mmHg 76%
    05:00 -3°C° 0 mm 9 mps 764 mmHg 77%
    06:00 -3°C° 0 mm 9 mps 764 mmHg 78%
    07:00 -3°C° 0 mm 10 mps 764 mmHg 76%
    08:00 -2°C° 0 mm 10 mps 764 mmHg 74%
    09:00 -2°C° 0 mm 10 mps 764 mmHg 72%
    10:00 0°C° 0 mm 10 mps 763 mmHg 68%
    11:00 +1°C° 0 mm 10 mps 763 mmHg 65%
    12:00 +1°C° 0 mm 10 mps 762 mmHg 62%
    13:00 +1°C° 0 mm 10 mps 762 mmHg 62%
    14:00 +1°C° 0 mm 10 mps 762 mmHg 62%
    15:00 +1°C° 0 mm 10 mps 761 mmHg 62%
    16:00 +1°C° 0 mm 10 mps 761 mmHg 62%
    17:00 +1°C° 0 mm 10 mps 761 mmHg 62%
    18:00 0°C° 0 mm 10 mps 761 mmHg 62%
    19:00 0°C° 0 mm 10 mps 761 mmHg 64%
    20:00 -2°C° 0 mm 10 mps 761 mmHg 66%
    21:00 -2°C° 0 mm 10 mps 761 mmHg 68%
    22:00 -2°C° 0 mm 10 mps 761 mmHg 68%
    23:00 -2°C° 0 mm 10 mps 761 mmHg 67%

    21 November, Wednesday

    Time Temperature Precipitation Wind Pressure Humidity
    00:00 -2°C° 0 mm 11 mps 760 mmHg 67%
    01:00 -2°C° 0 mm 11 mps 760 mmHg 66%
    02:00 -2°C° 0 mm 11 mps 760 mmHg 65%
    03:00 -2°C° 0 mm 11 mps 760 mmHg 63%
    04:00 -2°C° 0 mm 11 mps 759 mmHg 63%
    05:00 -2°C° 0 mm 11 mps 759 mmHg 62%
    06:00 -1°C° 0 mm 11 mps 759 mmHg 62%
    07:00 -1°C° 0 mm 11 mps 759 mmHg 63%
    08:00 -1°C° 0 mm 11 mps 759 mmHg 64%
    09:00 -1°C° 0 mm 11 mps 759 mmHg 66%
    10:00 -1°C° 0.2 mm 11 mps 759 mmHg 69%
    11:00 -1°C° 0.2 mm 11 mps 758 mmHg 72%
    12:00 -1°C° 0.2 mm 11 mps 758 mmHg 75%
    13:00 0°C° 0.4 mm 10 mps 758 mmHg 78%
    14:00 0°C° 0.4 mm 10 mps 757 mmHg 81%
    15:00 -1°C° 0.4 mm 9 mps 757 mmHg 84%
    16:00 -1°C° 0.3 mm 9 mps 757 mmHg 85%
    17:00 -1°C° 0.3 mm 9 mps 757 mmHg 87%
    18:00 -2°C° 0.3 mm 8 mps 757 mmHg 88%
    19:00 -2°C° 0.1 mm 8 mps 757 mmHg 89%
    20:00 -2°C° 0.1 mm 8 mps 757 mmHg 90%
    21:00 -2°C° 0.1 mm 8 mps 757 mmHg 90%
    22:00 -2°C° 0.1 mm 8 mps 757 mmHg 91%
    23:00 -3°C° 0.1 mm 7 mps 758 mmHg 92%

    22 November, Thursday

    Time Temperature Precipitation Wind Pressure Humidity
    00:00 -3°C° 0.1 mm 7 mps 758 mmHg 93%
    01:00 -4°C° 0 mm 7 mps 758 mmHg 93%
    02:00 -4°C° 0 mm 7 mps 759 mmHg 93%
    03:00 -4°C° 0 mm 7 mps 759 mmHg 93%
    04:00 -4°C° 0 mm 7 mps 760 mmHg 92%
    05:00 -6°C° 0 mm 7 mps 760 mmHg 92%
    06:00 -5°C° 0 mm 6 mps 761 mmHg 92%
    07:00 -4°C° 0 mm 6 mps 762 mmHg 90%
    08:00 -4°C° 0 mm 6 mps 762 mmHg 88%
    09:00 -3°C° 0 mm 6 mps 763 mmHg 87%
    10:00 -3°C° 0 mm 6 mps 763 mmHg 85%
    11:00 -2°C° 0 mm 6 mps 763 mmHg 84%
    12:00 0°C° 0 mm 5 mps 763 mmHg 82%
    13:00 0°C° 0 mm 5 mps 763 mmHg 84%
    14:00 0°C° 0 mm 5 mps 763 mmHg 86%
    15:00 -1°C° 0 mm 5 mps 763 mmHg 88%
    16:00 -1°C° 0 mm 5 mps 763 mmHg 89%
    17:00 -2°C° 0 mm 5 mps 764 mmHg 90%
    18:00 -4°C° 0 mm 5 mps 764 mmHg 91%
    19:00 -4°C° 0 mm 5 mps 764 mmHg 92%
    20:00 -4°C° 0 mm 5 mps 764 mmHg 92%
    21:00 -4°C° 0 mm 5 mps 764 mmHg 92%
    22:00 -4°C° 0 mm 5 mps 764 mmHg 92%
    23:00 -3°C° 0 mm 4 mps 765 mmHg 92%
    Show more